Torna al catalogo

KUIPER-00380

AttivoComunicazioniLEO
NORAD 68920·PAYLOAD·🇺🇸 United States

Lanciato Apr 30, 2026 da Guiana Space Centre

Loading…

Prossimi Passaggi (prossime 24 ore)

TLE

AggiornatoSource: CelesTrak SupGP

Epoca: Sep 14, 2026, 21:26 UTC

1 68920C 26098B   26257.89346065  .00005188  00000+0  67929-3 0  2577
2 68920  51.8989  13.9813 0000501  95.7656  92.5633 14.79917533    14

Traccia KUIPER-00380 in tempo reale con AllMySat

Download on the App Store